Weather History for KMFV - March, 2013

Change the Weather History Date:

Sunday, March 3, 2013

  Actual Average (KWAL) Record (KWAL)
Temperature  
Mean Temperature 37 °F 42 °F  
Max Temperature 41 °F 50 °F 70 °F (1967)
Min Temperature 33 °F 33 °F 14 °F (2009)
Degree Days  
Heating Degree Days 28    
Month to date heating degree days  
Since 1 July heating degree days  
Cooling Degree Days 0    
Month to date cooling degree days  
Year to date cooling degree days  
Moisture  
Dew Point 22 °F    
Average Humidity 55    
Maximum Humidity 70    
Minimum Humidity 42    
Precipitation  
Precipitation 0.00 in 0.12 in 1.07 in (1997)
Month to date precipitation 0.36  
Year to date precipitation 6.16  
Sea Level Pressure  
Sea Level Pressure 29.84 in    
Wind  
Wind Speed 11 mph (NW)    
Max Wind Speed 20 mph    
Max Gust Speed 29 mph    
Visibility 10 miles    
Events      
T = Trace of Precipitation, MM = Missing Value Source: NWS Daily Summary

Daily Weather History Graph

Daily Weather History Graph

Search for Another Location

Airport or City:

Trip Planner

Search our weather history database for the weather conditions in past years. The results will help you decide how hot, cold, wet, or windy it might be!

Date:

Astronomy

Mar. 03, 2013 Rise Set
Actual Time 6:31 AM EST 5:58 PM EST
Civil Twilight 6:05 AM EST 6:25 PM EST
Nautical Twilight 5:34 AM EST 6:55 PM EST
Astronomical Twilight 5:04 AM EST 7:25 PM EST
Moon No Moon Rise 9:52 AM EST (3/3)
Length of Visible Light 12h 20m
Length of Day
11h 27m
Waning Gibbous, 64% of the Moon is Illuminated
Mar 3
Waning Gibbous
Mar 4
Last Quarter
Mar 11
New
Mar 19
First Quarter
Mar 27
Full

Hourly Weather History & Observations

Time (EST) Temp. Windchill Dew Point Humidity Pressure Visibility Wind Dir Wind Speed Gust Speed Precip Events Conditions
12:16 AM 35.6 °F 28.0 °F 21.2 °F 56% 29.84 in 10.0 mi NW 10.4 mph 20.7 mph N/A   Overcast
12:36 AM 35.6 °F 27.5 °F 21.2 °F 56% 29.84 in 10.0 mi NW 11.5 mph 18.4 mph N/A   Mostly Cloudy
12:56 AM 35.6 °F 27.1 °F 23.0 °F 60% 29.84 in 10.0 mi NW 12.7 mph - N/A   Scattered Clouds
1:16 AM 35.6 °F 28.6 °F 23.0 °F 60% 29.84 in 10.0 mi NW 9.2 mph - N/A   Scattered Clouds
1:36 AM 33.8 °F 26.4 °F 23.0 °F 65% 29.84 in 10.0 mi NW 9.2 mph - N/A   Scattered Clouds
1:56 AM 33.8 °F 25.8 °F 23.0 °F 65% 29.83 in 10.0 mi NW 10.4 mph - N/A   Clear
2:16 AM 33.8 °F 27.7 °F 23.0 °F 65% 29.83 in 10.0 mi NW 6.9 mph 16.1 mph N/A   Clear
2:36 AM 33.8 °F 26.4 °F 23.0 °F 65% 29.82 in 10.0 mi NW 9.2 mph 16.1 mph N/A   Clear
2:56 AM 33.8 °F 26.4 °F 23.0 °F 65% 29.82 in 10.0 mi NW 9.2 mph 16.1 mph N/A   Clear
3:16 AM 33.8 °F 25.8 °F 23.0 °F 65% 29.82 in 10.0 mi WNW 10.4 mph - N/A   Clear
3:36 AM 33.8 °F 26.4 °F 23.0 °F 65% 29.82 in 10.0 mi NW 9.2 mph - N/A   Clear
3:56 AM 33.8 °F 26.4 °F 23.0 °F 65% 29.82 in 10.0 mi NW 9.2 mph - N/A   Clear
4:16 AM 33.8 °F 27.0 °F 23.0 °F 65% 29.82 in 10.0 mi NW 8.1 mph - N/A   Clear
4:37 AM 33.8 °F 26.4 °F 24.8 °F 70% 29.82 in 10.0 mi NW 9.2 mph - N/A   Clear
4:56 AM 33.8 °F 25.8 °F 24.8 °F 70% 29.83 in 10.0 mi NW 10.4 mph - N/A   Clear
5:16 AM 33.8 °F 28.6 °F 24.8 °F 70% 29.83 in 10.0 mi NW 5.8 mph - N/A   Clear
5:36 AM 33.8 °F 28.6 °F 24.8 °F 70% 29.83 in 10.0 mi NW 5.8 mph - N/A   Scattered Clouds
5:57 AM 33.8 °F 25.8 °F 24.8 °F 70% 29.83 in 10.0 mi NW 10.4 mph - N/A   Mostly Cloudy
6:16 AM 33.8 °F 26.4 °F 24.8 °F 70% 29.84 in 10.0 mi NW 9.2 mph - N/A   Overcast
6:36 AM 33.8 °F 27.7 °F 23.0 °F 65% 29.84 in 10.0 mi NNW 6.9 mph 16.1 mph N/A   Overcast
6:56 AM 33.8 °F 25.3 °F 23.0 °F 65% 29.84 in 10.0 mi NW 11.5 mph 21.9 mph N/A   Overcast
7:16 AM 33.8 °F 25.8 °F 23.0 °F 65% 29.85 in 10.0 mi NW 10.4 mph 17.3 mph N/A   Mostly Cloudy
7:56 AM 35.6 °F 26.6 °F 21.2 °F 56% 29.86 in 10.0 mi NW 13.8 mph 23.0 mph N/A   Mostly Cloudy
8:16 AM 35.6 °F 27.1 °F 21.2 °F 56% 29.86 in 10.0 mi NNW 12.7 mph 20.7 mph N/A   Mostly Cloudy
8:36 AM 37.4 °F 30.3 °F 23.0 °F 56% 29.86 in 10.0 mi NNW 10.4 mph 21.9 mph N/A   Mostly Cloudy
8:56 AM 37.4 °F 30.8 °F 21.2 °F 52% 29.86 in 10.0 mi North 9.2 mph 17.3 mph N/A   Mostly Cloudy
9:16 AM 35.6 °F 26.6 °F 23.0 °F 60% 29.86 in 10.0 mi NW 13.8 mph 23.0 mph N/A   Overcast
9:36 AM 35.6 °F 27.1 °F 23.0 °F 60% 29.85 in 10.0 mi NW 12.7 mph 16.1 mph N/A   Overcast
9:56 AM 35.6 °F 28.0 °F 21.2 °F 56% 29.85 in 10.0 mi NW 10.4 mph 23.0 mph N/A   Overcast
10:17 AM 35.6 °F 27.1 °F 21.2 °F 56% 29.85 in 10.0 mi NNW 12.7 mph 20.7 mph N/A   Overcast
10:36 AM 35.6 °F 26.6 °F 21.2 °F 56% 29.85 in 10.0 mi NW 13.8 mph 24.2 mph N/A   Overcast
10:56 AM 37.4 °F 28.2 °F 23.0 °F 56% 29.85 in 10.0 mi NW 16.1 mph 23.0 mph N/A   Overcast
11:16 AM 35.6 °F 27.1 °F 21.2 °F 56% 29.85 in 10.0 mi NNW 12.7 mph 25.3 mph N/A   Overcast
11:37 AM 37.4 °F 29.3 °F 21.2 °F 52% 29.85 in 10.0 mi NW 12.7 mph 24.2 mph N/A   Overcast
11:56 AM 37.4 °F 28.5 °F 21.2 °F 52% 29.84 in 10.0 mi NW 15.0 mph 26.5 mph N/A   Overcast
12:16 PM 37.4 °F 29.3 °F 21.2 °F 52% 29.84 in 10.0 mi NW 12.7 mph - N/A   Overcast
12:36 PM 37.4 °F 27.8 °F 21.2 °F 52% 29.83 in 10.0 mi NW 17.3 mph 24.2 mph N/A   Overcast
12:56 PM 37.4 °F 28.5 °F 21.2 °F 52% 29.82 in 10.0 mi NW 15.0 mph 26.5 mph N/A   Overcast
1:16 PM 37.4 °F 28.2 °F 21.2 °F 52% 29.82 in 10.0 mi NW 16.1 mph 26.5 mph N/A   Overcast
1:37 PM 39.2 °F 30.8 °F 21.2 °F 49% 29.81 in 10.0 mi NW 15.0 mph 21.9 mph N/A   Overcast
1:56 PM 39.2 °F 29.8 °F 21.2 °F 49% 29.81 in 10.0 mi NW 18.4 mph 25.3 mph N/A   Overcast
2:16 PM 39.2 °F 30.2 °F 21.2 °F 49% 29.80 in 10.0 mi WNW 17.3 mph 21.9 mph N/A   Mostly Cloudy
2:36 PM 39.2 °F 31.2 °F 19.4 °F 45% 29.80 in 10.0 mi NW 13.8 mph 20.7 mph N/A   Mostly Cloudy
2:56 PM 41.0 °F 32.8 °F 19.4 °F 42% 29.79 in 10.0 mi WNW 16.1 mph 24.2 mph N/A   Scattered Clouds
3:16 PM 41.0 °F 33.5 °F 19.4 °F 42% 29.79 in 10.0 mi NW 13.8 mph 28.8 mph N/A   Clear
3:36 PM 41.0 °F 31.9 °F 19.4 °F 42% 29.79 in 10.0 mi NW 19.6 mph 28.8 mph N/A   Clear
3:56 PM 41.0 °F 33.1 °F 19.4 °F 42% 29.79 in 10.0 mi NW 15.0 mph 28.8 mph N/A   Clear
4:36 PM 41.0 °F 33.9 °F 19.4 °F 42% 29.79 in 10.0 mi NW 12.7 mph 23.0 mph N/A   Clear
4:56 PM 41.0 °F 32.8 °F 19.4 °F 42% 29.80 in 10.0 mi NW 16.1 mph 23.0 mph N/A   Clear
5:16 PM 39.2 °F 30.8 °F 19.4 °F 45% 29.80 in 10.0 mi WNW 15.0 mph 23.0 mph N/A   Clear
5:37 PM 39.2 °F 31.6 °F 21.2 °F 49% 29.81 in 10.0 mi NW 12.7 mph 21.9 mph N/A   Clear
5:56 PM 39.2 °F 30.2 °F 19.4 °F 45% 29.81 in 10.0 mi NW 17.3 mph 21.9 mph N/A   Clear
6:16 PM 39.2 °F 30.8 °F 21.2 °F 49% 29.82 in 10.0 mi WNW 15.0 mph 19.6 mph N/A   Clear
6:36 PM 39.2 °F 33.0 °F 21.2 °F 49% 29.83 in 10.0 mi WNW 9.2 mph 21.9 mph N/A   Scattered Clouds
6:56 PM 39.2 °F 33.0 °F 21.2 °F 49% 29.83 in 10.0 mi WNW 9.2 mph - N/A   Mostly Cloudy
7:16 PM 39.2 °F 31.6 °F 21.2 °F 49% 29.84 in 10.0 mi WNW 12.7 mph - N/A   Mostly Cloudy
7:36 PM 39.2 °F 32.5 °F 21.2 °F 49% 29.84 in 10.0 mi WNW 10.4 mph - N/A   Overcast
7:56 PM 39.2 °F 33.0 °F 21.2 °F 49% 29.84 in 10.0 mi NW 9.2 mph - N/A   Overcast
8:16 PM 39.2 °F 33.0 °F 21.2 °F 49% 29.85 in 10.0 mi NW 9.2 mph - N/A   Overcast
8:36 PM 39.2 °F 33.0 °F 19.4 °F 45% 29.85 in 10.0 mi NW 9.2 mph 18.4 mph N/A   Mostly Cloudy
8:57 PM 39.2 °F 32.0 °F 19.4 °F 45% 29.86 in 10.0 mi NW 11.5 mph 16.1 mph N/A   Scattered Clouds
9:16 PM 39.2 °F 33.0 °F 21.2 °F 49% 29.86 in 10.0 mi NW 9.2 mph 17.3 mph N/A   Clear
9:36 PM 39.2 °F 33.6 °F 23.0 °F 52% 29.87 in 10.0 mi NNW 8.1 mph - N/A   Clear
9:56 PM 37.4 °F 30.8 °F 21.2 °F 52% 29.88 in 10.0 mi NNW 9.2 mph 20.7 mph N/A   Clear
10:16 PM 37.4 °F 30.3 °F 21.2 °F 52% 29.88 in 10.0 mi NNW 10.4 mph 17.3 mph N/A   Clear
10:36 PM 37.4 °F 28.5 °F 21.2 °F 52% 29.88 in 10.0 mi NW 15.0 mph 23.0 mph N/A   Clear
10:56 PM 37.4 °F 30.3 °F 21.2 °F 52% 29.88 in 10.0 mi NNW 10.4 mph 18.4 mph N/A   Clear
11:16 PM 37.4 °F 29.8 °F 21.2 °F 52% 29.88 in 10.0 mi NW 11.5 mph 21.9 mph N/A   Clear
11:36 PM 37.4 °F 29.3 °F 21.2 °F 52% 29.89 in 10.0 mi NW 12.7 mph 18.4 mph N/A   Clear
11:56 PM 35.6 °F 26.6 °F 21.2 °F 56% 29.89 in 10.0 mi NW 13.8 mph 19.6 mph N/A   Clear